Location: Newark
(45.0242°N, 16.0939°E)
Time: 21:14:05
(UTC+00:00)

Envisat - Pass Details

Date: 20 September 2019
Orbit: 764 x 766 km, 98.1° (Epoch: 18 October)

Event Time Altitude Azimuth Distance (km) Brightness Sun altitude
Rises 17:42:21 0° 188° (S) 3,219 6.2 -8.7°
Reaches altitude 10° 17:44:49 10° 197° (SSW) 2,297 5.6 -9.1°
Maximum altitude 17:49:28 36° 263° (W) 1,195 4.7 -9.9°
Drops below altitude 10° 17:54:10 10° 330° (NNW) 2,313 6.1 -10.7°
Sets 17:56:39 0° 339° (NNW) 3,244 6.7 -11.1°
